Theta_e
316 316 316 316 316 316 314 315 316 317 317 317 318 318 318 319 318 318 319 319 319 320 320 320 322 322 323 325 329 338 343 349 352 351 350 349 348 347 345 343 342 342 344 342
316 315 315 314 314 314 314 315 316 316 316 317 317 318 318 318 318 319 318 319 319 319 320 320 320 320 322 325 327 330 337 344 350 350 350 348 347 346 345 343 341 341 343 342
315 315 314 314 313 314 315 316 316 317 317 317 317 317 318 318 318 318 318 318 318 319 319 319 319 319 321 322 324 327 332 336 344 349 350 349 349 349 347 345 343 343 343 341
315 314 313 314 314 315 316 316 316 316 317 318 318 319 318 318 318 318 318 318 319 319 319 319 320 319 320 321 323 324 327 332 337 344 346 349 349 349 348 348 345 344 344 342
315 315 314 314 315 316 316 316 316 316 317 318 318 319 319 319 318 318 318 319 319 319 319 319 320 320 320 321 321 322 326 329 332 337 344 347 349 346 347 345 345 346 346 344
316 315 315 315 315 315 315 316 317 318 319 320 319 319 318 319 319 319 319 319 319 319 320 320 320 320 320 320 321 322 324 327 330 333 337 344 347 348 344 345 347 348 348 347
318 317 317 316 316 317 316 318 320 321 322 322 321 321 321 321 319 319 319 319 320 321 321 321 322 322 322 323 324 324 323 325 328 330 332 336 342 347 348 347 347 345 344 343
319 319 318 317 317 318 319 320 321 323 323 323 319 320 321 319 318 318 319 321 320 320 321 321 321 321 321 321 323 324 325 325 325 327 330 332 335 340 345 345 344 342 340 339
320 320 316 316 316 317 319 319 319 321 321 322 321 321 320 320 319 319 320 320 320 319 320 320 320 320 320 321 322 323 324 326 327 326 327 331 333 337 341 342 340 338 336 335
319 322 319 318 317 318 318 319 322 321 325 326 323 323 323 321 321 320 320 320 319 319 318 319 320 320 319 320 320 320 322 325 327 326 327 329 332 334 335 334 334 330 329 326
319 321 323 320 318 319 320 320 320 320 322 327 328 324 322 322 321 321 321 319 318 318 318 319 318 318 318 318 319 320 321 322 325 326 328 329 329 328 327 327 327 326 327 326
317 321 323 322 319 318 318 319 319 326 328 325 327 329 321 321 320 319 318 317 317 317 317 318 319 318 318 319 319 319 321 321 320 320 323 324 326 325 325 326 327 328 327 327
319 323 324 322 320 319 320 319 319 321 325 328 330 326 320 319 318 317 316 315 317 317 318 318 318 318 317 317 317 317 317 317 320 320 319 319 320 322 324 325 325 327 327 326
315 320 322 323 320 322 322 321 320 321 329 324 324 324 320 319 316 315 315 317 318 317 317 317 317 317 316 315 314 314 314 314 314 315 317 318 319 319 320 321 324 326 325 325
315 319 316 316 315 315 317 317 316 319 321 322 321 320 318 315 315 315 317 317 317 316 315 315 315 316 314 312 312 312 312 312 313 313 312 311 315 316 317 318 319 321 322 324
314 318 316 317 314 314 314 313 313 313 313 316 315 314 314 316 317 317 317 315 316 316 315 314 315 314 313 312 311 310 310 310 311 311 312 311 310 313 315 315 317 318 320 321
316 316 317 316 312 312 313 313 313 313 313 313 315 315 317 317 317 316 316 315 314 314 314 314 314 314 312 311 310 310 309 309 309 309 310 310 310 310 311 313 313 315 317 320
315 315 315 316 313 317 317 316 316 315 314 315 316 317 316 315 315 315 313 313 312 312 313 313 312 311 310 310 309 308 308 309 309 308 309 309 309 309 309 310 312 314 315 317
314 315 318 318 317 315 314 316 317 318 317 315 317 315 315 313 313 313 312 311 311 311 311 309 308 308 307 307 307 307 307 308 308 308 308 308 308 308 309 309 309 311 313 315
313 314 318 318 319 317 318 317 315 315 319 317 314 314 313 312 314 313 312 311 311 310 308 308 308 306 306 306 305 306 307 307 306 306 306 307 308 308 308 308 308 309 310 312
317 317 319 318 320 316 316 315 314 318 320 315 313 312 312 312 312 311 310 310 310 308 307 305 304 304 304 303 304 304 305 305 305 305 305 305 307 307 307 307 307 307 308 309
319 319 318 317 317 317 314 314 316 316 313 312 311 311 311 311 310 309 309 309 309 308 306 305 303 304 303 302 302 304 304 303 304 303 303 303 304 304 304 305 306 306 307 307
317 316 318 317 318 315 314 313 312 311 310 309 309 308 308 308 306 306 308 309 307 306 305 304 303 302 302 301 300 301 301 300 301 300 301 300 301 302 302 303 304 305 305 306
313 313 315 314 314 313 312 311 309 309 308 307 307 307 307 307 307 308 308 307 306 306 306 304 303 302 302 300 300 300 299 299 299 300 300 300 301 301 301 302 302 302 303 304
310 311 312 313 312 311 310 309 309 308 307 307 306 306 307 306 306 308 307 305 305 305 304 303 302 302 300 299 299 299 299 298 298 299 299 300 300 301 301 301 301 303 304 305
310 312 314 314 312 311 310 310 309 308 306 305 306 306 306 307 306 305 304 304 302 302 302 302 300 298 298 298 297 298 297 297 298 298 299 299 299 300 300 301 302 301 301 302
Wind_Speed
12 10 12 14 12 8 4 7 9 7 5 9 13 13 11 11 10 12 12 10 9 10 9 5 5 9 12 13 14 17 19 21 21 24 25 26 30 29 30 30 28 28 26 23
8 14 12 4 6 10 10 11 12 9 9 6 13 15 13 11 12 14 12 11 12 11 10 9 8 10 10 12 12 17 20 20 22 23 24 24 23 25 27 27 27 28 27 29
14 1 5 12 12 12 12 12 8 10 7 10 13 17 17 14 15 12 13 14 11 10 9 9 9 8 10 12 14 13 16 21 23 23 20 21 21 21 23 27 28 30 30 30
11 13 9 10 14 13 13 11 11 12 11 10 2 11 12 9 11 13 14 12 11 10 8 9 9 13 15 15 14 15 15 15 22 24 25 25 26 25 29 28 29 27 28 29
3 6 13 15 15 14 14 2 10 11 13 14 17 11 13 13 10 15 13 13 12 10 9 9 11 10 12 13 15 16 17 16 18 23 28 28 29 28 27 25 24 25 22 25
16 3 5 9 7 8 4 8 14 13 13 15 18 17 11 10 11 11 10 8 8 6 8 10 14 16 17 16 15 15 17 20 18 20 26 30 30 31 30 27 26 26 26 25
16 18 18 10 14 14 13 12 10 13 12 13 14 13 11 11 8 11 9 7 7 7 8 8 9 10 11 13 13 13 15 18 19 20 23 28 32 32 31 26 26 25 25 26
13 14 18 11 17 17 17 17 13 16 13 13 6 7 6 1 6 9 3 3 4 7 8 8 9 9 13 13 15 16 15 17 18 20 23 26 29 31 31 30 27 28 24 23
8 14 1 6 8 8 13 11 16 21 21 18 20 23 17 13 10 8 5 4 7 9 10 11 10 11 9 12 12 15 16 16 17 19 21 23 25 27 26 26 25 23 20 19
4 12 13 10 8 13 13 15 10 10 14 22 15 16 10 7 9 10 7 4 8 12 14 13 13 13 14 13 13 14 13 14 15 16 16 18 20 21 21 23 24 21 19 18
9 7 11 13 11 14 10 14 17 16 15 14 14 10 7 4 3 5 9 11 13 13 15 14 13 17 17 17 16 11 11 9 9 9 10 12 14 16 16 18 20 19 18 18
5 6 13 19 14 8 11 15 16 10 11 13 11 11 12 1 1 1 10 12 16 17 16 14 13 13 13 13 12 11 9 7 7 7 4 7 8 8 10 12 13 15 17 16
2 5 7 9 16 17 17 16 17 13 7 15 13 9 6 3 9 11 12 15 13 12 12 10 9 9 8 10 11 11 8 9 11 10 6 12 10 7 8 10 13 14 14 13
1 10 11 12 12 3 7 7 8 8 4 14 15 19 16 16 13 14 12 11 12 13 13 10 9 9 8 9 10 13 13 11 12 12 12 7 10 13 11 10 11 15 17 19
4 8 14 17 17 18 17 19 19 20 17 16 17 21 19 16 15 11 9 11 12 10 11 10 10 9 12 14 15 15 15 14 13 14 15 16 14 16 14 11 10 11 13 20
11 6 9 12 11 12 18 20 21 22 21 21 20 21 16 5 7 9 10 9 13 13 13 13 13 12 12 15 18 19 19 18 17 15 14 12 8 19 20 18 17 14 17 22
3 6 3 10 7 10 13 16 16 17 15 13 14 10 11 12 10 11 13 14 16 17 18 16 12 13 18 21 21 21 21 20 20 18 17 18 14 14 12 18 19 21 21 17
15 14 8 7 9 9 4 2 4 6 5 7 10 12 6 10 12 15 16 19 12 17 15 16 16 22 26 25 24 25 24 22 22 22 21 21 20 20 18 18 19 21 20 19
17 14 5 4 7 13 9 3 5 5 8 3 8 11 10 12 17 20 17 13 15 18 18 20 25 26 26 28 29 29 29 26 24 24 24 24 23 23 24 23 23 22 23 25
9 7 5 5 5 4 4 5 2 4 9 6 3 8 14 17 14 13 18 19 19 19 23 24 28 29 31 32 33 31 30 28 28 27 27 29 28 28 27 26 26 26 26 27
5 5 10 9 5 4 4 2 2 5 3 5 12 15 16 16 15 21 20 21 22 23 26 28 29 30 32 31 34 30 28 30 33 34 33 31 31 30 30 30 29 29 29 30
4 6 5 5 5 5 4 2 5 10 12 13 16 16 18 20 22 22 23 23 24 23 26 29 25 25 31 35 33 29 32 32 31 31 32 31 32 33 34 35 36 35 32 32
3 3 3 4 2 1 2 6 9 9 12 15 17 18 19 21 21 22 24 25 23 25 29 31 27 27 30 34 31 29 28 30 31 31 30 31 34 34 29 28 28 27 29 31
3 3 5 4 4 1 6 5 6 10 15 16 16 19 20 21 22 24 23 23 24 22 20 30 28 28 27 28 30 30 32 33 31 27 28 28 28 29 28 27 28 29 29 27
8 5 7 9 6 8 2 8 13 16 17 17 18 19 20 20 22 24 24 25 24 22 28 33 23 26 33 31 29 32 30 28 27 27 28 27 26 26 27 30 30 30 31 28
4 6 3 1 5 8 13 16 18 17 17 19 20 21 20 22 23 25 23 22 21 23 27 24 33 28 31 32 29 29 28 26 27 26 24 23 23 25 25 25 26 32 39 38
Wind_Direction
204 222 217 215 220 305 285 263 255 251 245 252 253 253 253 254 226 239 241 251 261 266 270 250 277 311 311 289 262 245 235 226 218 216 216 215 217 219 221 220 218 217 217 216
200 230 244 236 228 224 225 240 246 262 255 267 261 261 255 255 247 245 260 263 260 261 256 255 261 285 289 298 284 263 248 237 227 225 226 227 226 228 227 224 222 221 221 218
244 102 303 204 208 220 225 242 247 258 273 261 266 267 254 243 243 253 254 258 262 252 255 269 284 293 281 281 290 287 265 243 234 231 229 231 236 237 230 224 220 220 216 216
256 249 216 211 225 218 246 205 251 260 265 269 44 280 273 252 240 246 249 248 246 261 263 254 256 280 281 282 282 285 281 261 243 230 227 222 221 226 225 226 223 220 219 223
181 202 215 226 228 224 254 294 261 268 266 271 257 250 265 243 232 246 249 248 260 265 263 300 297 295 290 290 284 283 282 272 253 237 231 230 227 231 233 233 228 217 214 217
265 160 256 239 227 231 198 236 247 251 255 255 251 250 264 255 219 234 242 254 254 294 297 296 302 299 291 290 290 287 279 279 270 249 238 234 234 231 236 224 222 218 217 219
241 241 241 230 249 220 223 250 255 248 230 246 250 253 269 286 260 270 290 328 329 311 297 322 323 323 318 311 316 309 294 280 274 264 251 242 239 236 234 226 221 215 211 214
270 255 236 218 233 253 243 233 252 271 272 278 148 238 251 77 308 298 318 300 330 342 345 329 320 325 322 320 320 320 311 296 285 271 259 250 244 239 234 226 224 224 217 216
271 244 5 246 259 239 251 228 255 278 268 269 270 273 261 228 240 233 265 301 345 342 330 323 322 324 329 329 325 320 318 313 298 280 266 255 244 235 227 225 217 215 214 208
303 282 261 268 279 257 254 285 261 226 259 258 252 246 260 189 243 189 234 318 323 327 324 327 322 321 314 303 307 338 320 318 315 293 272 254 239 232 219 210 209 202 198 200
322 269 258 245 227 249 237 244 236 264 271 270 271 270 44 292 313 323 314 326 318 318 313 314 318 319 318 310 310 317 341 330 329 321 289 258 235 219 212 207 198 191 188 188
250 287 263 258 264 230 246 263 267 248 256 259 273 263 304 252 227 266 312 314 310 310 301 301 307 315 323 327 324 331 316 338 20 13 311 267 259 249 230 216 207 194 195 197
14 231 265 246 232 239 250 252 241 254 249 241 252 248 150 222 243 303 314 311 310 314 299 310 306 311 334 331 337 339 349 338 317 322 23 7 0 317 277 245 231 216 196 209
225 253 254 271 297 298 282 278 266 265 256 264 255 267 278 280 305 307 317 308 311 318 316 305 306 311 324 326 332 324 332 341 349 335 311 330 337 342 345 311 266 247 229 214
214 259 265 269 275 276 274 269 261 245 249 254 274 279 289 304 309 326 303 301 316 310 304 288 294 309 316 321 320 318 317 324 328 331 336 330 293 303 309 307 313 284 268 250
193 258 261 265 255 260 261 259 258 258 258 255 263 276 285 355 296 295 309 298 294 296 297 289 293 292 304 309 311 311 311 312 313 305 303 306 301 271 289 306 294 286 263 251
237 246 259 272 269 290 266 258 250 255 251 258 261 285 344 305 316 294 306 307 302 304 301 301 307 299 296 303 301 299 298 296 295 294 290 286 276 274 268 272 289 284 280 273
249 253 254 275 295 253 63 41 331 310 255 254 268 273 321 314 310 305 301 289 296 304 310 302 296 297 297 297 295 294 290 283 284 284 281 277 275 269 259 253 252 250 248 255
232 234 244 241 231 277 264 206 277 299 285 294 309 313 329 311 297 289 288 327 317 306 303 301 298 287 290 292 291 290 283 279 278 277 276 272 268 266 262 256 249 250 251 248
199 208 207 203 243 270 90 114 1 305 270 72 325 308 302 308 294 299 332 315 302 297 298 287 287 295 293 293 293 290 276 275 277 277 277 273 265 263 260 258 259 257 254 253
160 179 215 227 257 270 87 111 294 253 36 322 307 306 301 296 296 306 305 300 299 294 299 306 300 295 290 299 294 277 276 271 274 276 275 270 264 260 260 260 258 256 254 254
191 191 192 226 242 247 123 218 267 348 320 315 308 305 304 300 301 307 306 296 290 290 294 300 301 290 290 297 284 278 276 277 276 278 277 272 268 265 262 256 251 245 245 247
256 261 299 234 1 133 321 311 318 312 305 311 307 309 306 302 302 293 290 296 295 299 294 297 292 295 289 290 284 281 282 289 278 279 268 263 265 260 257 255 255 254 253 256
229 269 261 285 85 299 296 315 284 304 308 312 305 303 302 302 305 298 296 296 297 292 299 306 296 283 287 292 286 281 279 277 281 273 271 261 255 260 257 253 253 249 244 239
287 302 288 278 338 315 181 308 332 319 316 310 309 307 307 302 294 296 302 301 297 305 306 303 285 290 290 290 278 277 278 277 273 270 266 265 263 257 255 248 245 244 246 244
293 316 307 327 321 330 318 324 325 318 318 318 311 312 306 302 305 298 293 303 319 306 301 296 299 288 289 289 292 283 283 276 272 268 265 263 261 258 256 255 253 249 247 245